Sharjah, UAE

2:32 AM +04 on June 27, 2017 (GMT +0400)
Sharjah International

Weather History for OMSJ - November, 2012

Change the Weather History Date:

Monday, November 19, 2012

  Actual Average Record
Temperature  
Mean Temperature 77 °F -  
Max Temperature 90 °F 81 °F 91 °F (2011)
Min Temperature 64 °F 60 °F 50 °F (2010)
Cooling Degree Days 12    
Growing Degree Days 27 (Base 50)    
Moisture  
Dew Point 62 °F    
Average Humidity 61    
Maximum Humidity 83    
Minimum Humidity 29    
Precipitation  
Precipitation 0.00 in 0.02 in - ()
Sea Level Pressure  
Sea Level Pressure 29.96 in    
Wind  
Wind Speed 4 mph ()    
Max Wind Speed 16 mph    
Max Gust Speed -    
Visibility 6.1 miles    
Events      
Averages and records for this station are not official NWS values.
T = Trace of Precipitation, MM = Missing Value Source: Averaged Metar Reports

Daily Weather History Graph

Daily Weather History Graph

Search for Another Location

Airport or City:

Trip Planner

Search our weather history database for the weather conditions in past years. The results will help you decide how hot, cold, wet, or windy it might be!

Date:

Astronomy

Nov. 19, 2012 Rise Set
Actual Time 6:37 AM +04 5:28 PM +04
Civil Twilight 6:13 AM +04 5:52 PM +04
Nautical Twilight 5:45 AM +04 6:20 PM +04
Astronomical Twilight 5:18 AM +04 6:48 PM +04
Moon 11:37 AM +04 (11/19) 11:15 PM +04 (11/19)
Length of Visible Light 11h 39m
Length of Day
10h 50m
Waxing Crescent, 36% of the Moon is Illuminated
Nov 19
Waxing Crescent
Nov 20
First Quarter
Nov 28
Full
Dec 6
Last Quarter
Dec 13
New

Hourly Weather History & Observations

Time (+04) Temp. Heat Index Dew Point Humidity Pressure Visibility Wind Dir Wind Speed Gust Speed Precip Events Conditions
12:00 AM 71.6 °F - 62.6 °F 73% 29.98 in - Calm Calm - N/A   Clear
1:00 AM 68 °F - 61 °F 71% 29.99 in 6 mi Calm Calm - -  
1:00 AM 68.0 °F - 60.8 °F 78% 29.98 in - Calm Calm - N/A   Clear
2:00 AM 68.0 °F - 60.8 °F 78% 29.98 in - SSE 1.2 mph - N/A   Clear
4:00 AM 64 °F - 60 °F 81% 29.97 in 6 mi East 5.8 mph - -  
4:00 AM 64.4 °F - 59.0 °F 83% 29.95 in - Variable 5.8 mph - N/A   Clear
5:00 AM 64.4 °F - 59.0 °F 83% 29.95 in - East 5.8 mph - N/A   Clear
6:00 AM 64.4 °F - 59.0 °F 83% 29.95 in - East 6.9 mph - N/A   Clear
7:00 AM 65 °F - 59 °F 76% 29.98 in 6 mi East 8.1 mph - -   Clear
7:00 AM 64.4 °F - 59.0 °F 83% 29.98 in - East 8.1 mph - N/A   Clear
8:00 AM 69.8 °F - 60.8 °F 73% 30.01 in - East 4.6 mph - N/A   Clear
9:00 AM 77.0 °F - 62.6 °F 61% 30.01 in - ENE 8.1 mph - N/A   Clear
10:00 AM 81 °F - 65 °F 49% 30.02 in 6 mi East 9.2 mph - -  
10:00 AM 80.6 °F 82.3 °F 64.4 °F 58% 30.01 in - East 9.2 mph - N/A   Clear
11:00 AM 84.2 °F 85.6 °F 64.4 °F 51% 29.98 in - Variable 3.5 mph - N/A   Clear
12:00 PM 87.8 °F 87.6 °F 60.8 °F 40% 29.95 in 6.2 mi Variable 4.6 mph - N/A   Partly Cloudy
1:00 PM 88 °F - 60 °F 29% 29.92 in 6 mi SSW 4.6 mph - -   Scattered Clouds
1:00 PM 87.8 °F 87.6 °F 60.8 °F 40% 29.92 in 6.2 mi Variable 4.6 mph - N/A   Partly Cloudy
2:00 PM 89.6 °F 88.9 °F 59.0 °F 36% 29.89 in 6.2 mi Variable 5.8 mph - N/A   Partly Cloudy
3:00 PM 86.0 °F 88.2 °F 66.2 °F 51% 29.89 in 6.2 mi NNW 16.1 mph - N/A   Partly Cloudy
4:00 PM 84 °F - 66 °F 44% 29.91 in 6 mi NNW 12.7 mph - -   Scattered Clouds
4:00 PM 84.2 °F 86.6 °F 66.2 °F 55% 29.89 in 6.2 mi NNW 12.7 mph - N/A   Partly Cloudy
5:00 PM 82.4 °F 83.9 °F 64.4 °F 54% 29.92 in - NNW 12.7 mph - N/A   Clear
6:00 PM 80.6 °F 82.3 °F 64.4 °F 58% 29.92 in 6.2 mi North 5.8 mph - N/A   Partly Cloudy
7:00 PM 80 °F - 62 °F 45% 29.95 in 6 mi NNW 4.6 mph - -   Scattered Clouds
7:00 PM 80.6 °F 81.8 °F 62.6 °F 54% 29.95 in 6.2 mi NNW 4.6 mph - N/A   Partly Cloudy
8:00 PM 78.8 °F - 62.6 °F 57% 29.95 in - North 5.8 mph - N/A   Clear
9:00 PM 78.8 °F - 64.4 °F 61% 29.95 in - NNE 3.5 mph - N/A   Clear
10:00 PM 77 °F - 65 °F 57% 29.97 in 6 mi East 4.6 mph - -  
10:00 PM 77.0 °F - 64.4 °F 65% 29.95 in - East 4.6 mph - N/A   Clear
11:00 PM 77.0 °F - 66.2 °F 69% 29.95 in - East 4.6 mph - N/A   Clear